TimeEST,TemperatureF,Dew PointF,Humidity,Sea Level PressureIn,VisibilityMPH,Wind Direction,Wind SpeedMPH,Gust SpeedMPH,PrecipitationIn,Events,Conditions,WindDirDegrees,DateUTC
12:53 AM,50.0,43.0,77,29.90,10.0,SSW,4.6,-,N/A,,Overcast,210,2013-02-11 05:53:00
1:53 AM,52.0,44.1,74,29.88,10.0,South,5.8,-,N/A,,Overcast,180,2013-02-11 06:53:00
2:10 AM,51.8,44.6,76,29.89,10.0,Variable,4.6,-,N/A,,Overcast,0,2013-02-11 07:10:00
2:53 AM,53.1,46.0,77,29.88,10.0,Calm,Calm,-,N/A,,Overcast,0,2013-02-11 07:53:00
3:53 AM,54.0,46.9,77,29.88,10.0,SSW,3.5,-,N/A,,Overcast,210,2013-02-11 08:53:00
4:53 AM,52.0,50.0,93,29.90,10.0,Variable,4.6,-,0.01,Rain,Light Rain,0,2013-02-11 09:53:00
5:53 AM,52.0,50.0,93,29.91,10.0,SSW,5.8,-,0.00,,Overcast,210,2013-02-11 10:53:00
6:53 AM,52.0,50.0,93,29.92,10.0,SSW,5.8,-,N/A,,Overcast,210,2013-02-11 11:53:00
7:53 AM,53.1,50.0,89,29.93,10.0,SW,6.9,-,0.00,,Mostly Cloudy,230,2013-02-11 12:53:00
8:09 AM,53.6,50.0,88,29.93,10.0,WSW,8.1,-,N/A,,Mostly Cloudy,240,2013-02-11 13:09:00
8:53 AM,54.0,46.9,77,29.95,10.0,SW,10.4,27.6,N/A,,Mostly Cloudy,230,2013-02-11 13:53:00
9:53 AM,54.0,39.0,57,29.96,10.0,WSW,8.1,28.8,N/A,,Clear,240,2013-02-11 14:53:00
10:53 AM,57.0,37.9,49,29.95,10.0,SW,15.0,32.2,N/A,,Clear,230,2013-02-11 15:53:00
11:53 AM,55.9,34.0,44,29.97,10.0,Variable,5.8,28.8,N/A,,Clear,0,2013-02-11 16:53:00
12:53 PM,55.9,35.1,45,29.94,10.0,Variable,6.9,-,N/A,,Clear,0,2013-02-11 17:53:00
1:53 PM,55.0,28.0,35,29.96,10.0,Variable,5.8,24.2,N/A,,Clear,0,2013-02-11 18:53:00
2:53 PM,54.0,24.1,31,29.96,10.0,SW,9.2,28.8,N/A,,Clear,230,2013-02-11 19:53:00
3:53 PM,53.1,25.0,34,29.97,10.0,Variable,5.8,-,N/A,,Clear,0,2013-02-11 20:53:00
4:53 PM,51.1,23.0,33,29.97,10.0,SW,11.5,21.9,N/A,,Clear,230,2013-02-11 21:53:00
5:53 PM,48.9,19.9,32,29.97,10.0,SW,9.2,23.0,N/A,,Clear,230,2013-02-11 22:53:00
6:53 PM,46.9,19.0,33,30.00,10.0,WSW,10.4,19.6,N/A,,Clear,240,2013-02-11 23:53:00
7:53 PM,45.0,21.0,39,30.03,10.0,WSW,9.2,19.6,N/A,,Clear,240,2013-02-12 00:53:00
8:53 PM,44.1,21.9,42,30.06,10.0,Variable,6.9,-,N/A,,Clear,0,2013-02-12 01:53:00
9:53 PM,42.1,24.1,49,30.07,10.0,WSW,6.9,-,N/A,,Clear,250,2013-02-12 02:53:00
10:53 PM,42.1,24.1,49,30.07,10.0,West,9.2,16.1,N/A,,Clear,260,2013-02-12 03:53:00
11:53 PM,41.0,24.1,51,30.10,10.0,WSW,5.8,-,N/A,,Clear,240,2013-02-12 04:53:00